Manchester, NH

5:26 AM EDT on April 25, 2018 (GMT -0400)
Manchester

Weather History for KMHT - November, 2011

Change the Weather History Date:

Thursday, November 24, 2011

  Actual Average Record
Temperature  
Mean Temperature 34 °F 39 °F  
Max Temperature 39 °F 46 °F 70 °F (1999)
Min Temperature 28 °F 31 °F 9 °F (1890)
Degree Days  
Heating Degree Days 32 26  
Month to date heating degree days 541  
Since 1 July heating degree days 1128  
Cooling Degree Days 0 0  
Month to date cooling degree days 0  
Year to date cooling degree days 642  
Moisture  
Dew Point 28 °F    
Average Humidity 79    
Maximum Humidity 93    
Minimum Humidity 62    
Precipitation  
Precipitation 0.00 in 0.12 in 0.77 in (1967)
Month to date precipitation 3.33  
Year to date precipitation 40.56  
Snow  
Snow 0.00 in - - ()
Month to date snowfall  
Since 1 July snowfall  
Snow Depth -    
Sea Level Pressure  
Sea Level Pressure 30.12 in    
Wind  
Wind Speed 2 mph (NW)    
Max Wind Speed 10 mph    
Max Gust Speed -    
Visibility 10 miles    
Events      
T = Trace of Precipitation, MM = Missing Value Source: NWS Daily Summary

Daily Weather History Graph

Daily Weather History Graph

Search for Another Location

Airport or City:

Astronomy

Nov. 24, 2011 Rise Set
Actual Time 6:48 AM EST 4:15 PM EST
Civil Twilight 6:17 AM EST 4:46 PM EST
Nautical Twilight 5:42 AM EST 5:21 PM EST
Astronomical Twilight 5:08 AM EST 5:55 PM EST
Moon 6:03 AM EST (11/24) 3:43 PM EST (11/24)
Length of Visible Light 10h 29m
Length of Day
9h 27m
Waning Crescent, 0% of the Moon is Illuminated
Nov 24
Waning Crescent
Nov 25
New
Dec 2
First Quarter
Dec 10
Full
Dec 17
Last Quarter

Hourly Weather History & Observations

Time (EST) Temp. Windchill Dew Point Humidity Pressure Visibility Wind Dir Wind Speed Gust Speed Precip Events Conditions
12:10 AM 33.8 °F - 30.2 °F 87% 29.95 in 10.0 mi Calm Calm - N/A   Scattered Clouds
12:53 AM 32.0 °F 28.7 °F 30.0 °F 92% 30.01 in 10.0 mi NNW 3.5 mph - N/A   Clear
1:53 AM 32.0 °F - 28.9 °F 88% 30.03 in 10.0 mi Calm Calm - N/A   Clear
2:53 AM 30.9 °F 27.5 °F 27.0 °F 85% 30.05 in 10.0 mi NE 3.5 mph - N/A   Clear
3:53 AM 30.0 °F - 27.0 °F 88% 30.07 in 10.0 mi Calm Calm - N/A   Clear
4:53 AM 28.4 °F - 26.6 °F 93% 30.03 in 10.0 mi Calm Calm - N/A   Clear
5:53 AM 28.0 °F - 26.1 °F 92% 30.11 in 10.0 mi Calm Calm - N/A   Clear
6:53 AM 28.0 °F - 25.0 °F 88% 30.13 in 10.0 mi Calm Calm - N/A   Clear
7:53 AM 28.4 °F - 26.6 °F 93% 30.09 in 10.0 mi Calm Calm - N/A   Clear
8:53 AM 34.0 °F 27.2 °F 28.0 °F 79% 30.16 in 10.0 mi NNW 8.1 mph - N/A   Clear
9:53 AM 36.0 °F 30.3 °F 28.0 °F 73% 30.17 in 10.0 mi NNW 6.9 mph - N/A   Clear
10:23 AM 37.4 °F 30.3 °F 28.4 °F 70% 30.11 in 10.0 mi NNW 10.4 mph - N/A   Mostly Cloudy
10:53 AM 37.0 °F 30.4 °F 28.0 °F 70% 30.16 in 10.0 mi NNW 9.2 mph - N/A   Mostly Cloudy
11:23 AM 37.4 °F 32.1 °F 28.4 °F 70% 30.09 in 10.0 mi NW 6.9 mph - N/A   Scattered Clouds
11:53 AM 39.0 °F 34.8 °F 28.0 °F 65% 30.15 in 10.0 mi NW 5.8 mph - N/A   Partly Cloudy
12:53 PM 39.0 °F 32.8 °F 27.0 °F 62% 30.15 in 10.0 mi WNW 9.2 mph - N/A   Partly Cloudy
1:53 PM 39.9 °F 35.8 °F 28.0 °F 63% 30.14 in 10.0 mi NW 5.8 mph - N/A   Scattered Clouds
2:53 PM 39.0 °F 36.8 °F 28.9 °F 67% 30.15 in 10.0 mi West 3.5 mph - N/A   Overcast
3:53 PM 39.0 °F 36.8 °F 28.9 °F 67% 30.17 in 10.0 mi West 3.5 mph - N/A   Overcast
4:53 PM 39.2 °F - 30.2 °F 70% 30.11 in 10.0 mi Calm Calm - N/A   Overcast
5:53 PM 39.0 °F - 30.0 °F 70% 30.17 in 10.0 mi Calm Calm - N/A   Overcast
6:53 PM 39.2 °F - 30.2 °F 70% 30.14 in 10.0 mi Calm Calm - N/A   Overcast
7:53 PM 37.9 °F - 30.9 °F 76% 30.19 in 10.0 mi Calm Calm - N/A   Scattered Clouds
8:53 PM 34.0 °F - 30.0 °F 85% 30.18 in 10.0 mi Calm Calm - N/A   Clear
9:53 PM 33.1 °F - 30.0 °F 89% 30.16 in 10.0 mi Calm Calm - N/A   Clear
10:53 PM 32.0 °F - 28.9 °F 88% 30.16 in 10.0 mi Calm Calm - N/A   Clear
11:53 PM 33.1 °F 28.7 °F 28.9 °F 85% 30.15 in 10.0 mi South 4.6 mph - N/A   Clear